{"data":{"norad_id":65952,"epoch":"2026-05-24T15:55:47.541216Z","epoch_age_seconds":100729,"freshness":"FRESH","line1":"1 65952U 25228F   26144.66374469  .00003227  00000+0  45221-3 0  9998","line2":"2 65952  51.8999  27.1229 0000948  90.1349 269.9722 14.79927228 34443","mean_motion":14.79927228,"eccentricity":9.48e-5,"inclination_deg":51.8999,"raan_deg":27.1229,"arg_perigee_deg":90.1349,"mean_anomaly_deg":269.9722,"bstar":0.00045221,"rev_number":3444,"period_min":97.302081666951,"perigee_km":628.88952091533,"apogee_km":630.21817910049,"semimajor_km":7007.6908500079,"source":"CELESTRAK","updated_at":"2026-05-25T13:38:05.845495Z"}}